Starlink 32437

operational
NORAD ID: 63001 Int'l Des: 2025-031 Owner: SPXS Country: US Constellation: starlink
LEOCIRCULAR

关于 Starlink 32437

正在加载描述...

实时位置

正在加载3D地球...

即将过境

高度历史

Altitude vs Time

uPlot chart will show altitude changes over time

两行轨道根数

1 63001U 25031W 25305.55486832 .00029687 00000-0 10835-2 0 9998
2 63001 43.0011 147.4120 0001246 255.2051 104.8662 15.27593245 41491
Epoch: Nov 1, 2025 • Age: 11 hours

当前状态

高度 486.7 km
速度 7.63 km/s
星下点 42.25°N, 169.08°E
发射日期 Feb 11, 2025
运行时间 0.7 years
类型 internet

技术详情

分类 Payload
质量 730.00 kg
干质量 700.00 kg
总质量 730.00 kg
长度 0.30 m
直径 4.10 m
跨度 29.00 m
形状 Box + pan
制造商 SPXS
平台类型 Starlink V2M
阶段状态 In Orbit
所有者/国家 SPXS/US

大型星座

Loading constellations...